Vertical_Velocity
2 4 -1 -2 1 1 -0 -1 -1 -1 -1 1 1 -2 -0 0 -0 1 -0 -1 -1 -1 -0 -1 -0 1 0 0 -0 -0 -1 -0 -0 -0 1 1 1 1 1 1 0 -0 2
3 3 2 0 0 -1 1 -0 -1 0 -1 -1 0 2 1 0 -0 -2 2 -1 0 1 -1 -1 0 -1 -1 1 1 1 -1 -0 -0 -1 -1 1 1 2 0 2 1 -1 -1
2 3 1 3 -0 2 -0 5 -2 1 -0 1 -0 0 -0 -0 0 2 0 -0 0 -3 -3 0 -1 -1 -1 -1 -1 0 -0 -0 -1 -2 -2 -1 -2 -3 -0 1 2 2 -1
1 1 2 1 -1 2 2 3 0 1 -1 0 -1 -3 0 0 -0 -1 -0 1 2 1 0 -2 -3 -1 -0 1 1 0 -2 -1 -2 -0 1 -2 -2 -4 -2 -0 -1 -0 -2
1 3 1 2 -2 -1 1 3 2 1 0 -1 0 1 -0 1 -0 1 -2 0 1 1 -1 -1 -2 -1 -1 1 -0 1 -2 0 -2 -0 1 1 0 -1 -0 -0 1 -2 3
0 3 3 -1 -2 1 1 -1 3 2 6 2 -0 1 -1 1 2 1 0 -1 -3 -1 -0 -1 -3 -2 -4 -3 -3 1 1 -0 -1 -2 -1 1 -3 -1 2 4 -0 0 1
-2 -0 -1 0 -3 2 -2 1 3 5 3 5 1 1 -2 2 4 3 -1 -1 -1 -1 -3 2 1 2 -1 -1 -3 0 -0 1 -2 2 1 -4 -1 -1 -3 -2 0 3 1
4 -1 2 1 0 3 4 1 -2 2 0 5 1 -1 2 -1 4 -1 -2 -1 2 -2 1 -2 0 1 -1 -2 -1 -1 -2 2 2 -1 -2 -1 -1 -3 -0 -2 1 1 3
6 0 -1 3 -1 -1 0 -2 -3 -0 2 -4 1 -6 -3 4 2 4 1 0 3 -3 -3 -4 -2 2 1 0 -2 -1 -1 -4 0 1 -0 1 2 -2 -1 1 -0 -0 2
1 5 -2 4 2 0 1 4 -5 -1 -4 3 -6 -1 -5 -2 2 1 3 1 -0 -1 -4 -0 0 1 2 0 2 1 -3 -3 -3 1 1 3 0 1 0 4 0 -1 1
-1 5 1 6 1 6 10 -1 -1 0 -6 -3 0 -2 -2 -6 0 -6 7 2 -1 -1 -0 -1 -0 0 1 -0 0 -1 -0 2 1 1 2 2 0 1 1 1 3 1 -1
1 3 3 4 6 7 4 11 1 -0 -0 -6 0 1 2 -3 -0 -3 -6 0 -0 4 2 -3 0 -1 -0 1 -1 -0 -1 2 -0 0 -1 -2 -3 -1 -3 -5 -2 -4 0
3 4 0 5 -2 1 6 -0 1 -0 0 -3 -3 0 -2 0 -0 -2 -7 3 -0 1 2 2 -3 -1 -2 -2 -2 -3 0 -3 3 -0 -3 -1 -2 -3 -4 3 2 1 1
5 3 -1 1 3 8 3 2 2 0 1 -2 -1 -1 -3 5 1 -1 -4 10 -2 3 3 5 -1 -1 -3 1 3 -4 -0 2 -2 -6 -3 1 4 2 3 2 2 1 1
-0 0 -2 -1 -0 3 2 -0 2 4 -2 -3 3 -1 -2 -0 -1 0 0 -4 3 1 3 5 -1 -4 2 -1 -0 1 0 -6 -1 -1 0 -2 0 0 1 -0 -0 -0 -0
1 1 1 -0 -0 -3 3 0 -0 2 2 1 1 -3 -7 -1 -3 -1 20 26 3 -3 1 7 -3 1 -0 2 -3 -1 -1 0 -2 -1 -2 -0 -2 -1 -3 -2 -2 -0 0
-1 -1 -2 -2 -2 1 -0 -2 -4 -1 -2 -0 -1 1 1 1 6 -1 1 -3 6 5 4 7 -0 1 -4 -0 -2 2 1 1 3 2 -1 0 1 1 -1 0 1 1 2
3 4 2 -3 -5 -6 -3 -0 -1 5 1 2 6 24 12 4 -3 -0 -1 5 4 0 -2 3 -5 -3 1 4 5 5 -1 -2 -0 2 5 2 -1 -2 2 1 4 1 -2
-1 0 -0 -1 -0 1 -1 -0 3 -0 1 0 -8 20 27 4 10 2 10 10 11 1 -3 2 10 2 4 -2 1 -1 4 6 1 1 3 1 0 1 -1 -1 -5 -3 1
1 3 0 1 1 0 0 -2 -2 7 22 19 21 7 4 8 -4 -7 -6 -6 -2 -1 1 2 3 5 2 1 1 5 3 -6 3 1 2 0 0 -2 -5 -5 -2 1 0
-0 7 4 1 -2 4 5 8 18 8 6 6 3 0 -10 -3 2 2 2 -1 3 3 1 2 -0 2 1 1 -0 2 -5 3 9 3 2 11 -2 -6 -1 -8 -7 -1 -3
2 3 7 1 -2 7 11 0 7 2 -2 -11 -8 -4 0 0 -1 -1 1 2 2 2 -0 1 -0 -1 0 -4 1 -2 -1 -1 -2 9 -5 4 -9 6 -2 0 -1 -6 -4
-5 -6 -9 -8 -4 -7 -9 -7 -6 -3 1 1 1 2 -1 -1 1 1 -1 -4 -0 -1 -2 -0 1 -6 4 -5 -3 -1 -5 -10 -4 1 -8 -2 4 7 -5 2 -4 1 1
1 2 2 5 3 2 3 3 1 1 0 -0 -0 1 2 1 2 1 -1 -2 -1 -0 -0 -2 2 3 1 4 -1 -2 2 1 -0 7 -15 -5 -3 1 4 -6 -2 -3 -4
-1 -1 -1 -0 -1 -1 -1 0 -1 -1 -1 -2 -0 0 0 1 -0 1 2 0 -2 -2 -4 -4 -3 -4 -4 -6 -6 -5 -7 -11 -3 6 -1 -9 0 -3 -0 -1 -4 -0 1
3 2 0 -0 2 2 2 2 3 3 2 1 -0 1 1 1 2 3 4 3 3 1 3 -2 -5 -4 -5 -5 -7 -9 -5 -2 -4 6 -2 -2 -1 -12 15 -6 -2 -4 -4
Height
5831 5832 5833 5833 5835 5837 5838 5838 5838 5839 5839 5839 5840 5838 5838 5839 5839 5839 5839 5838 5838 5837 5837 5837 5836 5835 5835 5834 5832 5831 5830 5828 5827 5826 5824 5822 5820 5818 5816 5814 5812 5810 5808
5821 5824 5825 5825 5827 5828 5829 5831 5831 5832 5832 5832 5832 5833 5832 5832 5831 5831 5833 5831 5831 5831 5830 5829 5829 5828 5827 5826 5825 5824 5822 5820 5819 5817 5815 5814 5813 5811 5808 5806 5804 5801 5799
5812 5814 5815 5817 5818 5820 5821 5822 5823 5824 5824 5824 5825 5824 5824 5824 5825 5825 5824 5824 5824 5822 5820 5821 5820 5820 5820 5818 5817 5816 5814 5812 5809 5808 5806 5804 5802 5800 5799 5797 5795 5793 5791
5801 5803 5805 5807 5808 5810 5811 5812 5813 5815 5816 5816 5816 5816 5817 5817 5817 5817 5817 5817 5817 5816 5814 5813 5812 5812 5811 5810 5809 5808 5806 5804 5801 5798 5796 5794 5792 5791 5789 5787 5785 5783 5780
5791 5792 5794 5796 5797 5799 5801 5803 5803 5805 5807 5807 5808 5808 5808 5809 5809 5809 5810 5809 5809 5807 5808 5806 5805 5804 5802 5801 5800 5798 5796 5795 5792 5790 5787 5785 5782 5779 5777 5775 5773 5772 5769
5780 5782 5783 5783 5786 5788 5789 5791 5793 5795 5796 5797 5798 5798 5800 5801 5800 5802 5801 5801 5799 5800 5800 5800 5798 5796 5794 5791 5790 5788 5787 5786 5784 5781 5779 5777 5773 5770 5767 5764 5762 5761 5757
5767 5769 5772 5774 5774 5776 5778 5779 5782 5784 5785 5786 5787 5788 5790 5792 5794 5793 5792 5790 5791 5790 5789 5790 5789 5787 5785 5782 5781 5778 5776 5775 5773 5772 5770 5767 5764 5760 5757 5754 5752 5751 5749
5753 5756 5758 5761 5763 5765 5767 5768 5770 5772 5774 5774 5776 5777 5780 5782 5783 5783 5783 5782 5782 5780 5780 5778 5778 5777 5775 5772 5769 5767 5764 5763 5762 5760 5758 5755 5753 5749 5748 5748 5746 5743 5741
5736 5742 5745 5749 5750 5753 5755 5755 5757 5760 5762 5762 5765 5766 5768 5770 5770 5773 5774 5773 5772 5770 5769 5767 5766 5765 5763 5761 5757 5755 5753 5750 5749 5749 5746 5743 5741 5741 5740 5739 5737 5736 5734
5719 5725 5728 5733 5736 5740 5742 5743 5745 5748 5749 5752 5752 5752 5754 5757 5758 5760 5762 5761 5760 5759 5758 5756 5755 5752 5750 5747 5745 5743 5741 5740 5737 5736 5734 5734 5733 5733 5731 5730 5728 5727 5726
5699 5706 5712 5718 5721 5725 5727 5728 5731 5736 5736 5740 5741 5742 5742 5744 5745 5744 5747 5748 5748 5748 5747 5744 5742 5739 5737 5734 5733 5731 5730 5729 5727 5726 5726 5726 5724 5723 5720 5720 5719 5718 5718
5680 5689 5695 5701 5707 5709 5714 5716 5719 5723 5725 5727 5730 5730 5732 5733 5735 5733 5732 5734 5734 5734 5733 5731 5730 5727 5725 5723 5721 5720 5720 5720 5719 5718 5718 5717 5716 5714 5714 5713 5712 5711 5710
5665 5674 5681 5687 5690 5695 5700 5704 5707 5709 5712 5715 5717 5718 5720 5722 5722 5724 5721 5722 5722 5721 5720 5718 5716 5714 5712 5711 5711 5711 5711 5710 5710 5709 5709 5709 5709 5707 5706 5705 5703 5703 5703
5651 5658 5665 5671 5677 5681 5684 5690 5694 5697 5699 5703 5706 5708 5708 5710 5710 5712 5711 5712 5710 5710 5710 5708 5706 5704 5703 5703 5702 5701 5701 5702 5701 5702 5702 5701 5701 5701 5700 5698 5696 5695 5694
5642 5648 5653 5659 5664 5670 5674 5678 5683 5688 5690 5692 5694 5697 5698 5700 5700 5700 5700 5700 5699 5700 5701 5699 5698 5696 5696 5695 5693 5692 5692 5692 5695 5695 5693 5692 5691 5691 5690 5688 5686 5684 5682
5634 5638 5643 5648 5654 5659 5663 5668 5672 5676 5679 5682 5683 5686 5687 5689 5689 5690 5691 5688 5687 5689 5689 5690 5687 5687 5687 5687 5688 5686 5686 5686 5686 5685 5684 5683 5681 5680 5678 5676 5674 5671 5669
5626 5630 5634 5639 5645 5650 5655 5659 5663 5667 5669 5671 5673 5674 5675 5677 5677 5679 5679 5680 5679 5679 5677 5677 5678 5677 5679 5680 5679 5678 5678 5677 5676 5674 5673 5671 5668 5666 5664 5661 5659 5656 5654
5619 5624 5629 5633 5639 5643 5646 5649 5652 5657 5658 5660 5663 5662 5666 5669 5669 5668 5669 5670 5670 5668 5667 5670 5672 5672 5673 5672 5671 5670 5668 5667 5665 5663 5660 5657 5654 5651 5648 5645 5642 5639 5636
5619 5623 5627 5630 5633 5636 5639 5642 5646 5649 5650 5653 5656 5658 5659 5660 5661 5659 5659 5658 5659 5659 5661 5664 5666 5665 5664 5662 5662 5660 5658 5656 5653 5650 5646 5641 5637 5634 5631 5628 5624 5621 5618
5620 5624 5626 5628 5629 5632 5634 5638 5640 5642 5645 5647 5649 5649 5652 5652 5651 5652 5653 5654 5655 5655 5655 5655 5655 5654 5653 5651 5649 5648 5646 5643 5639 5635 5631 5626 5621 5617 5613 5609 5606 5602 5599
5623 5625 5626 5625 5626 5629 5631 5634 5637 5639 5640 5641 5644 5647 5649 5650 5650 5649 5649 5650 5649 5648 5647 5645 5644 5642 5640 5638 5635 5633 5630 5627 5624 5619 5614 5610 5605 5599 5593 5589 5585 5580 5577
5623 5624 5626 5625 5625 5628 5629 5632 5635 5636 5637 5639 5642 5644 5645 5645 5645 5644 5643 5641 5640 5638 5636 5634 5631 5629 5626 5623 5620 5617 5614 5611 5608 5602 5597 5593 5585 5579 5573 5567 5562 5557 5553
5627 5628 5628 5628 5629 5630 5631 5633 5635 5635 5636 5637 5638 5638 5638 5638 5637 5635 5633 5631 5629 5627 5625 5622 5619 5616 5612 5609 5605 5602 5598 5594 5590 5583 5577 5574 5565 5559 5552 5546 5539 5534 5530
5630 5631 5631 5632 5631 5631 5632 5632 5633 5633 5632 5632 5632 5631 5630 5628 5627 5624 5622 5619 5617 5613 5610 5607 5604 5601 5597 5592 5588 5584 5579 5575 5570 5564 5554 5554 5544 5538 5530 5522 5516 5511 5505
5630 5630 5630 5629 5629 5629 5628 5628 5628 5627 5626 5625 5624 5622 5620 5617 5615 5613 5609 5605 5602 5599 5595 5591 5586 5582 5577 5572 5567 5563 5559 5555 5551 5544 5532 5530 5520 5516 5508 5498 5491 5485 5480
5628 5627 5626 5625 5624 5624 5623 5621 5620 5619 5617 5615 5612 5610 5607 5604 5601 5598 5595 5592 5588 5584 5579 5574 5569 5563 5558 5552 5547 5543 5538 5533 5526 5522 5509 5507 5495 5489 5487 5473 5466 5459 5455